CW5757 Weather Reports


Display with metric or nautical units.
time (UTC)temp
F
wind
direction
speed
MPH
gust
MPH
rain 1hr
in
rain 24hr
in
rain mn
in
humidity
%
barometer
mb
20260903211700 96 92 0.0 0.0 0.00 0.00 0.00 41 1015.0
20260903211153 96 92 0.0 0.0 0.00 0.00 0.00 42 1015.0
20260903210700 96 92 0.0 0.0 0.00 0.00 0.00 41 1015.1
20260903210153 96 92 0.0 0.0 0.00 0.00 0.00 41 1015.1
20260903205700 96 92 0.0 0.0 0.00 0.00 0.00 43 1015.2
20260903205155 96 92 0.0 0.0 0.00 0.00 0.00 42 1015.3
20260903204702 96 92 0.0 0.0 0.00 0.00 0.00 40 1015.3
20260903204210 97 92 0.0 0.0 0.00 0.00 0.00 40 1015.4
20260903203705 97 92 0.0 0.0 0.00 0.00 0.00 40 1015.5
20260903203212 97 92 0.0 0.0 0.00 0.00 0.00 39 1015.4
20260903202706 98 92 0.0 0.0 0.00 0.00 0.00 38 1015.5
20260903202214 98 92 0.0 0.0 0.00 0.00 0.00 37 1015.5
20260903201708 98 92 0.0 0.0 0.00 0.00 0.00 38 1015.5
20260903201216 98 92 0.0 0.0 0.00 0.00 0.00 37 1015.6
20260903200711 99 92 0.0 0.0 0.00 0.00 0.00 37 1015.6
20260903200218 99 92 0.0 0.0 0.00 0.00 0.00 36 1015.6
20260903195713 99 92 0.0 0.0 0.00 0.00 0.00 36 1015.7
20260903195220 99 92 0.0 0.0 0.00 0.00 0.00 36 1015.8
20260903194700 100 92 0.0 0.0 0.00 0.00 0.00 35 1015.8
20260903194148 100 92 0.0 0.0 0.00 0.00 0.00 36 1015.9
20260903193648 100 92 0.0 0.0 0.00 0.00 0.00 36 1016.0
20260903193148 100 92 0.0 0.0 0.00 0.00 0.00 35 1016.1
20260903192648 100 92 0.0 0.0 0.00 0.00 0.00 37 1016.1
20260903192148 100 92 0.0 0.0 0.00 0.00 0.00 35 1016.2
20260903191648 100 92 0.0 0.0 0.00 0.00 0.00 36 1016.3
20260903191148 101 92 0.0 0.0 0.00 0.00 0.00 36 1016.4
20260903190648 101 92 0.0 0.0 0.00 0.00 0.00 38 1016.4
20260903190148 100 92 0.0 0.0 0.00 0.00 0.00 39 1016.5
20260903185648 100 92 0.0 0.0 0.00 0.00 0.00 38 1016.4
20260903185148 99 92 0.0 0.0 0.00 0.00 0.00 41 1016.7
20260903184648 99 92 0.0 0.0 0.00 0.00 0.00 41 1016.7
20260903184148 99 92 0.0 0.0 0.00 0.00 0.00 40 1016.8
20260903183648 99 92 0.0 0.0 0.00 0.00 0.00 39 1016.8
20260903183151 99 92 0.0 0.0 0.00 0.00 0.00 41 1016.7
20260903182658 99 92 0.0 0.0 0.00 0.00 0.00 42 1016.9
20260903182205 98 92 0.0 4.0 0.00 0.00 0.00 43 1016.9
20260903181712 97 92 0.0 4.0 0.00 0.00 0.00 42 1017.0
20260903181148 97 92 0.0 0.0 0.00 0.00 0.00 46 1017.0
20260903180648 97 92 0.0 0.0 0.00 0.00 0.00 44 1017.1
20260903180148 97 92 0.0 0.0 0.00 0.00 0.00 44 1017.1
20260903175648 97 92 0.0 0.0 0.00 0.00 0.00 43 1017.2
20260903175149 98 92 0.0 0.0 0.00 0.00 0.00 42 1017.1
20260903174655 98 92 0.0 0.0 0.00 0.00 0.00 42 1017.2
20260903174200 97 92 0.0 0.0 0.00 0.00 0.00 43 1017.2
20260903173648 96 92 0.0 0.0 0.00 0.00 0.00 44 1017.2
20260903173148 96 92 0.0 0.0 0.00 0.00 0.00 44 1017.3
20260903172648 96 92 0.0 0.0 0.00 0.00 0.00 45 1017.3
20260903172148 95 92 0.0 0.0 0.00 0.00 0.00 46 1017.3
20260903171653 95 92 0.0 0.0 0.00 0.00 0.00 46 1017.4
20260903171200 95 92 0.0 1.0 0.00 0.00 0.00 47 1017.5
20260903170648 95 92 0.0 1.0 0.00 0.00 0.00 47 1017.6
20260903170148 94 92 0.0 0.0 0.00 0.00 0.00 47 1017.7
20260903165648 94 92 0.0 0.0 0.00 0.00 0.00 47 1017.7
20260903165148 94 92 0.0 0.0 0.00 0.00 0.00 48 1017.8
20260903164653 95 92 0.0 0.0 0.00 0.00 0.00 47 1017.9
20260903164200 95 92 0.0 0.0 0.00 0.00 0.00 47 1018.0
20260903163648 96 92 0.0 0.0 0.00 0.00 0.00 45 1018.0
20260903163148 95 92 0.0 0.0 0.00 0.00 0.00 48 1018.1
20260903162648 95 92 0.0 0.0 0.00 0.00 0.00 46 1018.1
20260903162148 95 92 0.0 0.0 0.00 0.00 0.00 47 1018.1
20260903161648 95 92 0.0 0.0 0.00 0.00 0.00 47 1018.1
20260903161148 94 92 0.0 0.0 0.00 0.00 0.00 50 1018.2
20260903160653 94 92 0.0 0.0 0.00 0.00 0.00 50 1018.2
20260903160200 94 92 0.0 0.0 0.00 0.00 0.00 50 1018.2
20260903155648 93 92 0.0 0.0 0.00 0.00 0.00 52 1018.3
20260903155148 93 92 0.0 0.0 0.00 0.00 0.00 52 1018.3
20260903154648 92 92 0.0 0.0 0.00 0.00 0.00 52 1018.4
20260903154148 92 92 0.0 0.0 0.00 0.00 0.00 53 1018.5
20260903153648 91 92 0.0 0.0 0.00 0.00 0.00 54 1018.5
20260903153153 91 92 0.0 0.0 0.00 0.00 0.00 53 1018.5
20260903152700 91 92 0.0 2.0 0.00 0.00 0.00 54 1018.5
20260903152148 90 92 0.0 2.0 0.00 0.00 0.00 55 1018.6
20260903151653 89 92 0.0 0.0 0.00 0.00 0.00 58 1018.5
20260903151200 89 92 0.0 0.0 0.00 0.00 0.00 60 1018.5
20260903150217 87 92 0.0 0.0 0.00 0.00 0.00 64 1018.5
20260903145724 86 92 0.0 0.0 0.00 0.00 0.00 65 1018.5
20260903145219 85 92 0.0 0.0 0.00 0.00 0.00 66 1018.5
20260903144655 85 92 0.0 0.0 0.00 0.00 0.00 68 1018.4
20260903144155 84 92 0.0 0.0 0.00 0.00 0.00 67 1018.4
20260903143658 84 92 0.0 0.0 0.00 0.00 0.00 68 1018.4
20260903143205 83 92 0.0 0.0 0.00 0.00 0.00 70 1018.3
20260903142712 83 92 0.0 0.0 0.00 0.00 0.00 70 1018.4
20260903142219 82 92 0.0 0.0 0.00 0.00 0.00 73 1018.3
20260903141655 81 92 0.0 0.0 0.00 0.00 0.00 74 1018.4
20260903141155 80 92 0.0 0.0 0.00 0.00 0.00 75 1018.4
20260903140655 80 92 0.0 0.0 0.00 0.00 0.00 78 1018.4
20260903140155 79 92 0.0 0.0 0.00 0.00 0.00 79 1018.5
20260903135655 78 92 0.0 0.0 0.00 0.00 0.00 80 1018.4
20260903135155 78 92 0.0 0.0 0.00 0.00 0.00 81 1018.5
20260903134658 77 92 0.0 0.0 0.00 0.00 0.00 82 1018.5
20260903134205 76 92 0.0 0.0 0.00 0.00 0.00 82 1018.5
20260903133712 76 92 0.0 0.0 0.00 0.00 0.00 83 1018.6
20260903133207 75 92 0.0 0.0 0.00 0.00 0.00 83 1018.5
20260903132655 75 92 0.0 0.0 0.00 0.00 0.00 83 1018.6
20260903132200 75 92 0.0 0.0 0.00 0.00 0.00 84 1018.6
20260903131700 75 92 0.0 0.0 0.00 0.00 0.00 84 1018.6
20260903131207 74 92 0.0 0.0 0.00 0.00 0.00 84 1018.7
20260903130655 74 92 0.0 0.0 0.00 0.00 0.00 84 1018.6
20260903130200 74 92 0.0 0.0 0.00 0.00 0.00 84 1018.8
20260903125707 74 92 0.0 0.0 0.00 0.00 0.00 83 1018.7
20260903125155 74 92 0.0 0.0 0.00 0.00 0.00 83 1018.8
20260903124700 73 92 0.0 0.0 0.00 0.00 0.00 83 1018.7
20260903124207 73 92 0.0 0.0 0.00 0.00 0.00 83 1018.7
20260903123655 73 92 0.0 0.0 0.00 0.00 0.00 83 1018.8
20260903123200 73 92 0.0 0.0 0.00 0.00 0.00 83 1018.8
20260903122707 73 92 0.0 0.0 0.00 0.00 0.00 83 1018.8
20260903122155 73 92 0.0 0.0 0.00 0.00 0.00 83 1018.8
20260903121655 73 92 0.0 0.0 0.00 0.00 0.00 83 1018.8
20260903121155 73 92 0.0 0.0 0.00 0.00 0.00 82 1018.8
20260903120655 73 92 0.0 0.0 0.00 0.00 0.00 82 1018.8
20260903120155 73 92 0.0 0.0 0.00 0.00 0.00 82 1018.8
20260903115644 73 92 0.0 0.0 0.00 0.00 0.00 81 1018.8
20260903115144 73 92 0.0 0.0 0.00 0.00 0.00 81 1018.7
20260903114644 73 92 0.0 0.0 0.00 0.00 0.00 81 1018.6
20260903114144 73 92 0.0 0.0 0.00 0.00 0.00 81 1018.7
20260903113644 73 92 0.0 0.0 0.00 0.00 0.00 81 1018.6
20260903113144 73 92 0.0 0.0 0.00 0.00 0.00 81 1018.5
20260903112644 73 92 0.0 0.0 0.00 0.00 0.00 81 1018.6
20260903112144 73 92 0.0 0.0 0.00 0.00 0.00 81 1018.5
20260903111644 73 92 0.0 0.0 0.00 0.00 0.00 81 1018.3
20260903111144 73 92 0.0 0.0 0.00 0.00 0.00 81 1018.2
20260903110644 73 92 0.0 0.0 0.00 0.00 0.00 81 1018.2
20260903110149 73 92 0.0 0.0 0.00 0.00 0.00 81 1018.3
20260903105656 73 92 0.0 0.0 0.00 0.00 0.00 81 1018.2
20260903105144 73 92 0.0 0.0 0.00 0.00 0.00 81 1018.1
20260903104644 73 92 0.0 0.0 0.00 0.00 0.00 81 1018.0
20260903104144 73 92 0.0 0.0 0.00 0.00 0.00 81 1017.9
20260903103644 73 92 0.0 0.0 0.00 0.00 0.00 81 1018.0
20260903103144 73 92 0.0 0.0 0.00 0.00 0.00 81 1017.9
20260903102644 73 92 0.0 0.0 0.00 0.00 0.00 81 1017.9
20260903102144 74 92 0.0 0.0 0.00 0.00 0.00 81 1017.8
20260903101241 74 92 0.0 0.0 0.00 0.00 0.00 81 1017.8
20260903100435 74 92 0.0 0.0 0.00 0.00 0.00 80 1017.8
20260903095911 74 92 0.0 0.0 0.00 0.00 0.00 80 1017.8
20260903095411 74 92 0.0 0.0 0.00 0.00 0.00 80 1017.7
20260903094911 74 92 0.0 0.0 0.00 0.00 0.00 80 1017.8
20260903094416 74 92 0.0 0.0 0.00 0.00 0.00 80 1017.8
20260903093923 74 92 0.0 0.0 0.00 0.00 0.00 80 1017.8
20260903093416 74 92 0.0 0.0 0.00 0.00 0.00 80 1017.8
20260903092923 74 92 0.0 0.0 0.00 0.00 0.00 80 1017.8
20260903092415 74 92 0.0 0.0 0.00 0.00 0.00 80 1017.9
20260903091923 74 92 0.0 0.0 0.00 0.00 0.00 79 1017.8
20260903091054 74 92 0.0 0.0 0.00 0.00 0.00 80 1017.8
20260903090554 74 92 0.0 0.0 0.00 0.00 0.00 80 1017.7
20260903090054 74 92 0.0 0.0 0.00 0.00 0.00 80 1017.8
20260903085554 75 92 0.0 0.0 0.00 0.00 0.00 79 1017.8
20260903085054 75 92 0.0 0.0 0.00 0.00 0.00 79 1017.7
20260903084554 75 92 0.0 0.0 0.00 0.00 0.00 79 1017.7
20260903084054 75 92 0.0 0.0 0.00 0.00 0.00 79 1017.8
20260903083556 75 92 0.0 0.0 0.00 0.00 0.00 79 1017.7
20260903083103 75 92 0.0 0.0 0.00 0.00 0.00 79 1017.7
20260903082611 75 92 0.0 0.0 0.00 0.00 0.00 79 1017.7
20260903082106 75 92 0.0 0.0 0.00 0.00 0.00 79 1017.7
20260903081554 75 92 0.0 0.0 0.00 0.00 0.00 79 1017.7
20260903081054 75 92 0.0 0.0 0.00 0.00 0.00 79 1017.7
20260903080554 75 92 0.0 0.0 0.00 0.00 0.00 79 1017.6
20260903080054 75 92 0.0 0.0 0.00 0.00 0.00 79 1017.5
20260903075554 75 92 0.0 0.0 0.00 0.00 0.00 79 1017.6
20260903075054 75 92 0.0 0.0 0.00 0.00 0.00 79 1017.4
20260903074557 75 92 0.0 0.0 0.00 0.00 0.00 79 1017.3
20260903074054 76 92 0.0 0.0 0.00 0.00 0.00 79 1017.3
20260903073554 76 92 0.0 0.0 0.00 0.00 0.00 79 1017.4
20260903073054 76 92 0.0 0.0 0.00 0.00 0.00 79 1017.5
20260903072554 76 92 0.0 0.0 0.00 0.00 0.00 78 1017.5
20260903072054 76 92 0.0 0.0 0.00 0.00 0.00 78 1017.5
20260903071554 76 92 0.0 0.0 0.00 0.00 0.00 78 1017.6
20260903071054 76 92 0.0 0.0 0.00 0.00 0.00 78 1017.6
20260903070559 76 92 0.0 0.0 0.00 0.00 0.00 78 1017.6
20260903070106 76 92 0.0 0.0 0.00 0.00 0.00 77 1017.6
20260903065558 76 92 0.0 0.0 0.00 0.00 0.00 77 1017.6
20260903065106 77 92 0.0 0.0 0.00 0.00 0.00 76 1017.6
20260903064554 77 92 0.0 0.0 0.00 0.00 0.00 77 1017.5
20260903064054 77 92 0.0 0.0 0.00 0.00 0.00 76 1017.5
20260903063554 77 92 0.0 0.0 0.00 0.00 0.00 76 1017.5
20260903063054 77 92 0.0 0.0 0.00 0.00 0.00 76 1017.5
20260903062554 77 92 0.0 0.0 0.00 0.00 0.00 76 1017.5
20260903062058 77 92 0.0 0.0 0.00 0.00 0.00 75 1017.6
20260903061606 77 92 0.0 0.0 0.00 0.00 0.00 75 1017.5
20260903061059 77 92 0.0 0.0 0.00 0.00 0.00 76 1017.6
20260903060606 78 92 0.0 0.0 0.00 0.00 0.00 75 1017.6
20260903060054 78 92 0.0 0.0 0.00 0.00 0.00 75 1017.5
20260903055554 78 92 0.0 0.0 0.00 0.00 0.00 75 1017.6
20260903055059 78 92 0.0 0.0 0.00 0.00 0.00 75 1017.5
20260903054606 78 92 0.0 0.0 0.00 0.00 0.00 75 1017.6
20260903054054 78 92 0.0 0.0 0.00 0.00 0.00 75 1017.7
20260903053554 78 92 0.0 0.0 0.00 0.00 0.00 74 1017.7
20260903053054 78 92 0.0 0.0 0.00 0.00 0.00 73 1017.6
20260903052559 78 92 0.0 0.0 0.00 0.00 0.00 73 1017.6
20260903052106 78 92 0.0 0.0 0.00 0.00 0.00 74 1017.6
20260903051539 79 92 0.0 0.0 0.00 0.00 0.00 73 1017.6
20260903050539 79 92 0.0 0.0 0.00 0.00 0.00 73 1017.6
20260903045623 79 92 0.0 0.0 0.00 0.00 0.00 72 1017.7
20260903045125 79 92 0.0 0.0 0.00 0.00 0.00 72 1017.7
20260903044632 79 92 0.0 0.0 0.00 0.00 0.00 72 1017.7
20260903044140 79 92 0.0 0.0 0.00 0.00 0.00 72 1017.7
20260903043647 80 92 0.0 0.0 0.00 0.00 0.00 72 1017.6
20260903043154 80 92 0.0 0.0 0.00 0.00 0.00 71 1017.6
20260903042701 80 92 0.0 0.0 0.00 0.00 0.00 71 1017.6
20260903042156 80 92 0.0 0.0 0.00 0.00 0.00 71 1017.6
20260903041651 80 92 0.0 0.0 0.00 0.00 0.00 71 1017.6
20260903041158 80 92 0.0 0.0 0.00 0.00 0.00 71 1017.7
20260903040653 80 92 0.0 0.0 0.00 0.00 0.00 71 1017.8
20260903040148 80 92 0.0 0.0 0.00 0.00 0.00 71 1017.7
20260903035624 81 92 0.0 0.0 0.00 0.00 0.00 71 1017.7
20260903035126 81 92 0.0 0.0 0.00 0.00 0.00 71 1017.7
20260903034633 81 92 0.0 0.0 0.00 0.00 0.00 70 1017.8
20260903034140 81 92 0.0 0.0 0.00 0.00 0.00 69 1017.8
20260903033635 81 92 0.0 0.0 0.00 0.00 0.00 69 1017.9
20260903033123 81 92 0.0 0.0 0.00 0.00 0.00 69 1017.9
20260903032623 82 92 0.0 0.0 0.00 0.00 0.00 69 1017.9
20260903032128 82 92 0.0 0.0 0.00 0.00 0.00 68 1017.8
20260903031635 82 92 0.0 0.0 0.00 0.00 0.00 67 1017.9
20260903031124 82 92 0.0 0.0 0.00 0.00 0.00 67 1017.9
20260903030628 83 92 0.0 0.0 0.00 0.00 0.00 66 1017.9
20260903030135 83 92 0.0 0.0 0.00 0.00 0.00 66 1017.9
20260903025623 83 92 0.0 0.0 0.00 0.00 0.00 65 1018.0
20260903025123 83 92 0.0 0.0 0.00 0.00 0.00 66 1018.0
20260903024623 83 92 0.0 0.0 0.00 0.00 0.00 65 1018.1
20260903024123 84 92 0.0 0.0 0.00 0.00 0.00 64 1018.1
20260903023623 84 92 0.0 0.0 0.00 0.00 0.00 64 1018.1
20260903023123 84 92 0.0 0.0 0.00 0.00 0.00 64 1018.1
20260903022623 84 92 0.0 0.0 0.00 0.00 0.00 64 1018.2
20260903022123 85 92 0.0 0.0 0.00 0.00 0.00 63 1018.1
20260903021624 85 92 0.0 0.0 0.00 0.00 0.00 62 1018.1
20260903021123 85 92 0.0 0.0 0.00 0.00 0.00 62 1018.1
20260903020623 85 92 0.0 0.0 0.00 0.00 0.00 61 1018.1
20260903020123 86 92 0.0 0.0 0.00 0.00 0.00 62 1018.0
20260903015623 86 92 0.0 0.0 0.00 0.00 0.00 60 1018.0
20260903015124 86 92 0.0 0.0 0.00 0.00 0.00 60 1017.9
20260903014624 86 92 0.0 0.0 0.00 0.00 0.00 58 1017.9
20260903014123 87 92 0.0 0.0 0.00 0.00 0.00 58 1017.8
20260903013628 87 92 0.0 0.0 0.00 0.00 0.00 58 1017.6
20260903013136 87 92 0.0 0.0 0.00 0.00 0.00 58 1017.7
20260903012623 88 92 0.0 0.0 0.00 0.00 0.00 57 1017.5
20260903012123 88 92 0.0 0.0 0.00 0.00 0.00 57 1017.4
20260903011623 88 92 0.0 0.0 0.00 0.00 0.00 57 1017.4
20260903011123 89 92 0.0 0.0 0.00 0.00 0.00 57 1017.3
20260903010310 89 92 0.0 0.0 0.00 0.00 0.00 54 1017.3
20260903005805 89 92 0.0 0.0 0.00 0.00 0.00 52 1017.1
20260903005253 90 92 0.0 0.0 0.00 0.00 0.00 52 1017.1
20260903004753 90 92 0.0 0.0 0.00 0.00 0.00 52 1017.0
20260903004253 90 92 0.0 0.0 0.00 0.00 0.00 51 1017.0
20260903003758 90 92 0.0 0.0 0.00 0.00 0.00 51 1016.9
20260903003305 91 92 0.0 0.0 0.00 0.00 0.00 51 1016.9
20260903002753 91 92 0.0 0.0 0.00 0.00 0.00 49 1016.8
20260903002255 91 92 0.0 0.0 0.00 0.00 0.00 49 1016.7
20260903001753 91 92 0.0 0.0 0.00 0.00 0.00 47 1016.6
20260903001253 92 92 0.0 0.0 0.00 0.00 0.00 47 1016.6
20260903000753 92 92 0.0 0.0 0.00 0.00 0.00 46 1016.6
20260903000258 92 92 0.0 0.0 0.00 0.00 0.00 46 1016.5
20260902235805 92 92 0.0 0.0 0.00 0.00 0.00 45 1016.5
20260902235252 93 92 0.0 0.0 0.00 0.00 0.00 45 1016.5
20260902234752 93 92 0.0 0.0 0.00 0.00 0.00 44 1016.5
20260902234253 93 92 0.0 0.0 0.00 0.00 0.00 44 1016.4
20260902233758 93 92 0.0 0.0 0.00 0.00 0.00 44 1016.4
20260902233305 93 92 0.0 0.0 0.00 0.00 0.00 44 1016.3
20260902232753 93 92 0.0 0.0 0.00 0.00 0.00 44 1016.4
20260902232253 93 92 0.0 0.0 0.00 0.00 0.00 44 1016.5
20260902231752 93 92 0.0 0.0 0.00 0.00 0.00 44 1016.5
20260902231253 94 92 0.0 0.0 0.00 0.00 0.00 43 1016.5
20260902230753 94 92 0.0 0.0 0.00 0.00 0.00 43 1016.7
20260902230253 94 92 0.0 0.0 0.00 0.00 0.00 43 1016.7
20260902225757 94 92 0.0 0.0 0.00 0.00 0.00 43 1016.7
20260902225306 94 92 0.0 0.0 0.00 0.00 0.00 43 1016.7
20260902224753 94 92 0.0 0.0 0.00 0.00 0.00 43 1016.7
20260902224252 94 92 0.0 0.0 0.00 0.00 0.00 42 1016.7
20260902223753 94 92 0.0 0.0 0.00 0.00 0.00 42 1016.7
20260902223258 94 92 0.0 0.0 0.00 0.00 0.00 42 1016.7
20260902222753 94 92 0.0 0.0 0.00 0.00 0.00 41 1016.7
20260902222255 95 92 0.0 0.0 0.00 0.00 0.00 40 1016.7
20260902221803 95 92 0.0 0.0 0.00 0.00 0.00 40 1016.7
20260902221310 95 92 0.0 0.0 0.00 0.00 0.00 39 1016.7
20260902220804 95 92 0.0 0.0 0.00 0.00 0.00 39 1016.7
20260902220252 95 92 0.0 0.0 0.00 0.00 0.00 39 1016.7
20260902215753 95 92 0.0 0.0 0.00 0.00 0.00 39 1016.7
20260902215253 95 92 0.0 0.0 0.00 0.00 0.00 40 1016.7
20260902214753 95 92 0.0 0.0 0.00 0.00 0.00 40 1016.6
20260902214252 95 92 0.0 0.0 0.00 0.00 0.00 40 1016.6
20260902213752 95 92 0.0 0.0 0.00 0.00 0.00 39 1016.7
20260902213257 95 92 0.0 0.0 0.00 0.00 0.00 39 1016.7
20260902212804 95 92 0.0 0.0 0.00 0.00 0.00 40 1016.6
20260902212252 95 92 0.0 0.0 0.00 0.00 0.00 39 1016.6